When you browse on this site, cookies collect data to enhance your experience and personalize the content and advertising you see.
Visit our Privacy Policy to learn more. By continuing to use the site, you agree to this use of cookies and data.
  • In United Kingdom
  • List of Countries
  • For 7 days
  • Water Temperature
  • Satellite Maps
  • Weather Map
  • Weather Widgets
  • user-avatar
    Login

    Hourly Weather Plymouth

    Today, 25 April, Thursday

    Time Temperature Precipitation Wind Pressure Humidity
    00:00 +8°C° 0.2 mm 7 mps 741 mmHg 91%
    01:00 +8°C° 0.5 mm 7 mps 741 mmHg 92%
    02:00 +8°C° 0.5 mm 7 mps 740 mmHg 93%
    03:00 +8°C° 0.5 mm 7 mps 740 mmHg 94%
    04:00 +8°C° 0.2 mm 7 mps 740 mmHg 93%
    05:00 +7°C° 0.2 mm 8 mps 740 mmHg 93%
    06:00 +7°C° 0.2 mm 8 mps 741 mmHg 92%
    07:00 +9°C° 0.1 mm 8 mps 741 mmHg 88%
    08:00 +10°C° 0.1 mm 8 mps 742 mmHg 84%
    09:00 +11°C° 0.1 mm 9 mps 743 mmHg 79%
    10:00 +11°C° 0.2 mm 9 mps 743 mmHg 77%
    11:00 +11°C° 0.2 mm 9 mps 744 mmHg 75%
    12:00 +12°C° 0.2 mm 9 mps 744 mmHg 73%
    13:00 +12°C° 0.1 mm 8 mps 745 mmHg 72%
    14:00 +12°C° 0.1 mm 8 mps 745 mmHg 71%
    15:00 +12°C° 0.1 mm 8 mps 746 mmHg 71%
    16:00 +11°C° 0 mm 7 mps 747 mmHg 73%
    17:00 +11°C° 0 mm 7 mps 747 mmHg 76%
    18:00 +10°C° 0 mm 6 mps 748 mmHg 79%
    19:00 +9°C° 0 mm 5 mps 748 mmHg 82%
    20:00 +9°C° 0 mm 5 mps 749 mmHg 85%
    21:00 +8°C° 0 mm 5 mps 750 mmHg 88%
    22:00 +8°C° 0 mm 5 mps 750 mmHg 90%
    23:00 +7°C° 0 mm 5 mps 751 mmHg 91%

    Tomorrow, 26 April, Friday

    Time Temperature Precipitation Wind Pressure Humidity
    00:00 +7°C° 0 mm 5 mps 751 mmHg 93%
    01:00 +7°C° 0 mm 5 mps 752 mmHg 93%
    02:00 +7°C° 0 mm 5 mps 752 mmHg 92%
    03:00 +7°C° 0 mm 5 mps 752 mmHg 92%
    04:00 +7°C° 0.1 mm 5 mps 753 mmHg 92%
    05:00 +8°C° 0.1 mm 5 mps 753 mmHg 92%
    06:00 +8°C° 0.1 mm 6 mps 754 mmHg 92%
    07:00 +9°C° 0.2 mm 6 mps 754 mmHg 91%
    08:00 +9°C° 0.2 mm 7 mps 755 mmHg 90%
    09:00 +9°C° 0.2 mm 8 mps 756 mmHg 89%
    10:00 +9°C° 0.1 mm 8 mps 757 mmHg 86%
    11:00 +9°C° 0.1 mm 8 mps 757 mmHg 84%
    12:00 +9°C° 0.1 mm 8 mps 758 mmHg 82%
    13:00 +9°C° 0.1 mm 8 mps 758 mmHg 80%
    14:00 +9°C° 0.1 mm 8 mps 759 mmHg 78%
    15:00 +7°C° 0.1 mm 8 mps 759 mmHg 76%
    16:00 +7°C° 0 mm 8 mps 759 mmHg 78%
    17:00 +7°C° 0 mm 8 mps 758 mmHg 80%
    18:00 +7°C° 0 mm 8 mps 758 mmHg 81%
    19:00 +8°C° 0.4 mm 10 mps 758 mmHg 84%
    20:00 +8°C° 0.4 mm 11 mps 758 mmHg 87%
    21:00 +8°C° 0.4 mm 12 mps 758 mmHg 91%
    22:00 +7°C° 0.1 mm 12 mps 757 mmHg 88%
    23:00 +7°C° 0.1 mm 12 mps 757 mmHg 85%

    Day after tomorrow, 27 April, Saturday

    Time Temperature Precipitation Wind Pressure Humidity
    00:00 +5°C° 0.1 mm 12 mps 756 mmHg 82%
    01:00 +5°C° 0.1 mm 13 mps 756 mmHg 80%
    02:00 +5°C° 0.1 mm 14 mps 756 mmHg 78%
    03:00 +5°C° 0.1 mm 15 mps 756 mmHg 77%
    04:00 +5°C° 0.1 mm 15 mps 757 mmHg 74%
    05:00 +6°C° 0.1 mm 15 mps 757 mmHg 72%
    06:00 +6°C° 0.1 mm 16 mps 758 mmHg 70%
    07:00 +6°C° 0 mm 15 mps 759 mmHg 69%
    08:00 +6°C° 0 mm 15 mps 760 mmHg 68%
    09:00 +8°C° 0 mm 15 mps 761 mmHg 67%
    10:00 +8°C° 0 mm 14 mps 761 mmHg 67%
    11:00 +8°C° 0 mm 14 mps 762 mmHg 66%
    12:00 +8°C° 0 mm 13 mps 763 mmHg 66%
    13:00 +8°C° 0 mm 13 mps 764 mmHg 67%
    14:00 +8°C° 0 mm 12 mps 764 mmHg 67%
    15:00 +8°C° 0 mm 11 mps 765 mmHg 68%
    16:00 +8°C° 0 mm 11 mps 765 mmHg 69%
    17:00 +8°C° 0 mm 10 mps 766 mmHg 70%
    18:00 +8°C° 0 mm 9 mps 766 mmHg 71%
    19:00 +7°C° 0 mm 8 mps 767 mmHg 73%
    20:00 +6°C° 0 mm 7 mps 767 mmHg 75%
    21:00 +5°C° 0 mm 6 mps 768 mmHg 77%
    22:00 +5°C° 0 mm 6 mps 768 mmHg 81%
    23:00 +5°C° 0 mm 5 mps 768 mmHg 85%

    28 April, Sunday

    Time Temperature Precipitation Wind Pressure Humidity
    00:00 +5°C° 0 mm 4 mps 768 mmHg 88%
    01:00 +4°C° 0 mm 4 mps 768 mmHg 89%
    02:00 +4°C° 0 mm 4 mps 768 mmHg 90%
    03:00 +4°C° 0 mm 4 mps 768 mmHg 90%
    04:00 +4°C° 0 mm 4 mps 768 mmHg 90%
    05:00 +5°C° 0 mm 4 mps 768 mmHg 89%
    06:00 +5°C° 0 mm 3 mps 768 mmHg 89%
    07:00 +8°C° 0 mm 3 mps 768 mmHg 83%
    08:00 +10°C° 0 mm 3 mps 769 mmHg 77%
    09:00 +11°C° 0 mm 3 mps 769 mmHg 71%
    10:00 +12°C° 0 mm 3 mps 768 mmHg 68%
    11:00 +13°C° 0 mm 3 mps 768 mmHg 66%
    12:00 +14°C° 0 mm 3 mps 768 mmHg 64%
    13:00 +14°C° 0 mm 4 mps 768 mmHg 65%
    14:00 +14°C° 0 mm 4 mps 767 mmHg 67%
    15:00 +14°C° 0 mm 5 mps 767 mmHg 69%
    16:00 +13°C° 0 mm 4 mps 766 mmHg 72%
    17:00 +12°C° 0 mm 4 mps 766 mmHg 76%
    18:00 +11°C° 0 mm 4 mps 766 mmHg 79%
    19:00 +10°C° 0 mm 4 mps 766 mmHg 84%
    20:00 +7°C° 0 mm 4 mps 766 mmHg 88%
    21:00 +7°C° 0 mm 3 mps 766 mmHg 93%
    22:00 +7°C° 0 mm 3 mps 766 mmHg 93%
    23:00 +5°C° 0 mm 3 mps 766 mmHg 94%

    29 April, Monday

    Time Temperature Precipitation Wind Pressure Humidity
    00:00 +6°C° 0 mm 2 mps 765 mmHg 94%
    01:00 +7°C° 0 mm 2 mps 765 mmHg 94%
    02:00 +7°C° 0 mm 2 mps 765 mmHg 94%
    03:00 +8°C° 0 mm 2 mps 765 mmHg 94%
    04:00 +9°C° 0.5 mm 1 mps 765 mmHg 95%
    05:00 +9°C° 0.5 mm 1 mps 765 mmHg 96%
    06:00 +9°C° 0.5 mm 1 mps 765 mmHg 97%
    07:00 +9°C° 0.9 mm 0 mps 765 mmHg 96%
    08:00 +9°C° 0.9 mm 0 mps 765 mmHg 95%
    09:00 +9°C° 0.9 mm 0 mps 765 mmHg 95%
    10:00 +11°C° 0.1 mm 1 mps 765 mmHg 91%
    11:00 +12°C° 0.1 mm 1 mps 766 mmHg 87%
    12:00 +14°C° 0.1 mm 2 mps 766 mmHg 83%
    13:00 +14°C° 0 mm 2 mps 766 mmHg 81%
    14:00 +14°C° 0 mm 2 mps 766 mmHg 80%
    15:00 +15°C° 0 mm 2 mps 766 mmHg 79%
    16:00 +14°C° 0 mm 2 mps 765 mmHg 81%
    17:00 +14°C° 0 mm 1 mps 765 mmHg 83%
    18:00 +14°C° 0 mm 1 mps 765 mmHg 85%
    19:00 +12°C° 0 mm 1 mps 766 mmHg 88%
    20:00 +10°C° 0 mm 1 mps 766 mmHg 91%
    21:00 +9°C° 0 mm 1 mps 766 mmHg 94%
    22:00 +9°C° 0 mm 1 mps 766 mmHg 93%
    23:00 +8°C° 0 mm 1 mps 766 mmHg 93%

    30 April, Tuesday

    Time Temperature Precipitation Wind Pressure Humidity
    00:00 +8°C° 0 mm 1 mps 766 mmHg 93%
    01:00 +7°C° 0 mm 2 mps 766 mmHg 93%
    02:00 +7°C° 0 mm 2 mps 766 mmHg 93%
    03:00 +5°C° 0 mm 3 mps 766 mmHg 93%
    04:00 +7°C° 0 mm 3 mps 766 mmHg 94%
    05:00 +7°C° 0 mm 3 mps 766 mmHg 94%
    06:00 +7°C° 0 mm 3 mps 766 mmHg 95%
    07:00 +9°C° 0 mm 3 mps 766 mmHg 89%
    08:00 +11°C° 0 mm 3 mps 766 mmHg 83%
    09:00 +13°C° 0 mm 3 mps 766 mmHg 78%
    10:00 +14°C° 0 mm 3 mps 766 mmHg 74%
    11:00 +16°C° 0 mm 3 mps 765 mmHg 71%
    12:00 +16°C° 0 mm 3 mps 765 mmHg 67%
    13:00 +16°C° 0 mm 3 mps 765 mmHg 69%
    14:00 +16°C° 0 mm 2 mps 765 mmHg 72%
    15:00 +16°C° 0 mm 2 mps 764 mmHg 74%
    16:00 +15°C° 0.1 mm 2 mps 764 mmHg 79%
    17:00 +14°C° 0.1 mm 1 mps 764 mmHg 84%
    18:00 +13°C° 0.1 mm 0 mps 764 mmHg 89%
    19:00 +13°C° 0.1 mm 1 mps 764 mmHg 91%
    20:00 +13°C° 0.1 mm 1 mps 764 mmHg 93%
    21:00 +12°C° 0.1 mm 2 mps 764 mmHg 94%
    22:00 +12°C° 0.2 mm 2 mps 764 mmHg 95%
    23:00 +12°C° 0.2 mm 2 mps 763 mmHg 95%
    Show more